Beaver, WV

8:02 PM EST on January 17, 2017 (GMT -0500)
Raleigh County Memorial

Weather History for KBKW - March, 2013

Change the Weather History Date:

Saturday, March 23, 2013

  Actual Average Record
Temperature  
Mean Temperature 37 °F 44 °F  
Max Temperature 49 °F 54 °F 83 °F (1907)
Min Temperature 24 °F 34 °F 11 °F (1940)
Degree Days  
Heating Degree Days 28 21  
Month to date heating degree days 686 557  
Since 1 July heating degree days 4500 4558  
Moisture  
Dew Point 16 °F    
Average Humidity 48    
Maximum Humidity 69    
Minimum Humidity 26    
Precipitation  
Precipitation 0.00 in 0.12 in 1.20 in (1952)
Month to date precipitation 1.35 2.62  
Year to date precipitation 7.54 8.19  
Snow  
Snow 0.00 in - - ()
Month to date snowfall 9.7  
Since 1 September snowfall 65.6  
Snow Depth 0.00 in    
Sea Level Pressure  
Sea Level Pressure 30.01 in    
Wind  
Wind Speed 3 mph (NNE)    
Max Wind Speed 10 mph    
Max Gust Speed 15 mph    
Visibility 10 miles    
Events      
T = Trace of Precipitation, MM = Missing Value Source: NWS Daily Summary

Daily Weather History Graph

Daily Weather History Graph

Search for Another Location

Airport or City:

Trip Planner

Search our weather history database for the weather conditions in past years. The results will help you decide how hot, cold, wet, or windy it might be!

Date:

Astronomy

Mar. 23, 2013 Rise Set
Actual Time 7:23 AM EDT 7:39 PM EDT
Civil Twilight 6:56 AM EDT 8:05 PM EDT
Nautical Twilight 6:26 AM EDT 8:36 PM EDT
Astronomical Twilight 5:54 AM EDT 9:07 PM EDT
Moon 4:07 PM EDT (3/23) 4:54 AM EDT (3/23)
Length of Visible Light 13h 08m
Length of Day
12h 16m
Waxing Gibbous, 85% of the Moon is Illuminated
Mar 23
Waxing Gibbous
Mar 27
Full
Apr 3
Last Quarter
Apr 10
New
Apr 18
First Quarter

Hourly Weather History & Observations

Time (EDT) Temp. Windchill Dew Point Humidity Pressure Visibility Wind Dir Wind Speed Gust Speed Precip Events Conditions
12:51 AM 28.0 °F - 14.0 °F 56% 30.05 in 10.0 mi Calm Calm - N/A   Clear
2:51 AM 28.0 °F - 18.0 °F 66% 30.04 in 10.0 mi Calm Calm - N/A   Overcast
3:51 AM 28.9 °F 25.2 °F 18.0 °F 64% 30.01 in 10.0 mi South 3.5 mph - N/A   Overcast
4:51 AM 30.0 °F - 16.0 °F 56% 30.01 in 10.0 mi Calm Calm - N/A   Overcast
5:51 AM 30.0 °F - 21.0 °F 69% 30.01 in 10.0 mi Calm Calm - N/A   Overcast
6:51 AM 30.0 °F - 18.0 °F 61% 30.02 in 10.0 mi Calm Calm - N/A   Overcast
7:51 AM 30.9 °F - 18.0 °F 59% 30.04 in 10.0 mi Calm Calm - N/A   Overcast
8:51 AM 32.0 °F - 17.1 °F 54% 30.06 in 10.0 mi Calm Calm - N/A   Overcast
9:51 AM 35.1 °F - 14.0 °F 42% 30.07 in 10.0 mi Calm Calm - N/A   Overcast
10:51 AM 36.0 °F - 14.0 °F 41% 30.07 in 10.0 mi Calm Calm - N/A   Overcast
11:51 AM 37.9 °F 34.4 °F 12.9 °F 36% 30.07 in 10.0 mi NNE 4.6 mph - N/A   Overcast
12:51 PM 41.0 °F 39.0 °F 15.1 °F 35% 30.04 in 10.0 mi Variable 3.5 mph - N/A   Overcast
1:51 PM 42.1 °F - 14.0 °F 32% 30.03 in 10.0 mi Calm Calm - N/A   Overcast
2:51 PM 44.1 °F 41.5 °F 12.9 °F 28% 30.01 in 10.0 mi NNW 4.6 mph - N/A   Overcast
3:51 PM 46.0 °F 44.8 °F 15.1 °F 29% 29.98 in 10.0 mi Variable 3.5 mph - N/A   Partly Cloudy
4:51 PM 48.0 °F - 16.0 °F 28% 29.97 in 10.0 mi Variable 6.9 mph - N/A   Clear
5:51 PM 48.0 °F - 18.0 °F 30% 29.96 in 10.0 mi North 8.1 mph - N/A   Clear
6:51 PM 45.0 °F 41.2 °F 19.0 °F 36% 29.96 in 10.0 mi NNW 6.9 mph - N/A   Clear
7:51 PM 43.0 °F 40.3 °F 19.0 °F 38% 29.98 in 10.0 mi North 4.6 mph - N/A   Clear
8:51 PM 42.1 °F 40.2 °F 16.0 °F 35% 29.98 in 10.0 mi NE 3.5 mph - N/A   Clear
9:51 PM 39.0 °F 35.7 °F 17.1 °F 41% 29.98 in 10.0 mi NE 4.6 mph - N/A   Clear
10:51 PM 37.0 °F 34.5 °F 17.1 °F 44% 29.96 in 10.0 mi East 3.5 mph - N/A   Clear
11:51 PM 37.0 °F 34.5 °F 16.0 °F 42% 29.91 in 10.0 mi ENE 3.5 mph - N/A   Clear